O3B FM15 (43231 NORAD) Tracking and Keplerian Element Data

This shows tracking and keplerian element data for the satellite.

Feedback or suggestion? Click here.




ElementValue
Catalog43231
NameO3B FM15
Epoch Orbit11382
Epoch Day155.4995907
Epoch Year2024
RAAN7.6097
Inclination0.0476
Eccentricity0.0002664
Argument of Perigee68.6426
Mean Anonmoly283.7779
Mean Motion5.00114878
Decay Rate-1.7E-07
L11 43231U 18024A 24155.49959070 -.00000017 00000+0 00000+0 0 9995
L22 43231 0.0476 7.6097 0002664 68.6426 283.7779 5.00114878113823



Live tracking and technical data element details for O3B FM15 (NORAD 43231). O3B FM15 can be tracked NOW for your location showing map with azimuth and elevation plus other details from your city location.







IsCatalogInMostPopularTable: catalog: 43231, numindb: 640
Update: records affected: 1



GetName: 43231 O3B FM15

Hit Count: updated at: Mon, 17 Jun 2024 23:20:15 GMT